* Astronomy

Members Login
Post Info TOPIC: Molniya-M SL-6 Rocket Body Re-entry


L

Posts: 131433
Date:
RE: Molniya-M SL-6 Rocket Body Re-entry
Permalink  
 


Update
The SL-6 rocket body re-entered the Earths atmosphere on the 19th May, 2011 @ 07:16 GMT 1 minute.

Inclination: 63.37
Revolution Number: 9688
Predicted Location: 63N, 179E



__________________


L

Posts: 131433
Date:
Permalink  
 

Update
The SL-6 rocket body is predicted to re-enter the Earths atmosphere on the 19th May, 2011 @ 05:57 GMT 7 hours.

SL6 RB
1 25382U 98040D 11138.76994887 .77059679 35850-5 61869-3 0 5088
2 25382 063.3532 266.5393 0695390 254.8195 266.4441 15.00090421 96806


Period: 105.75 minutes
Inclination: 63.37
Apogee: 1962 km
Perigee: 97 km
Revolution Number: 9686
Predicted Location: 46.9S, 267.2E



__________________


L

Posts: 131433
Date:
Permalink  
 

Update
The SL-6 rocket body is predicted to re-enter the Earths atmosphere on the 19th May, 2011 @ 09:00 GMT 24 hours.

SL6 RB
1 25382U 98040D 11136.91638848 +.29796453 +13970-4 +36813-3 0 04897
2 25382 063.3708 271.9900 1417789 253.4154 272.3175 13.28833850096540


Period: 110.75 minutes
Inclination: 63.38
Apogee: 2428 km
Perigee: 94 km
Revolution Number: 9688
Predicted Location: 63.3S, 169.2E



__________________


L

Posts: 131433
Date:
Permalink  
 

Update
The SL-6 rocket body is predicted to re-enter the Earths atmosphere on the 18th May, 2011 @ 19:28 GMT 48 hours.

SL6 RB
1 25382U 98040D 11136.83934142 .29522763 13828-4 45035-3 0 4882
2 25382 063.3696 272.1752 1432508 253.4200 264.3784 13.24242899 96531


Period: 115.32 minutes
Inclination: 63.37
Apogee: 2851 km
Perigee: 89 km
Revolution Number: 9680
Predicted Location: 54.3S, 54.5E



__________________


L

Posts: 131433
Date:
Permalink  
 

A SL-6 rocket body that was launched by a Molniya-M carrier rocket on the 1st July, 1998, from the Plesetsk launch site for the MOLNIYA 3-49 mission (Decayed 2011-02-02) is predicted to re-enter the Earths atmosphere on the 18th May, 2011 @ 20:48 GMT 48 hours.

SL6 RB
1 25382U 98040D 11135.34251799 .24079330 11413-4 42604-3 0 4808
2 25382 063.3716 275.8187 1798608 253.0994 203.1612 12.40365063 96344


Period: 124.88 minutes
Inclination: 63.39
Apogee: 3709 km
Perigee: 88 km
Revolution Number: 9681
Predicted Location: 63.4S, 352.3E



__________________
Page 1 of 1  sorted by
 
Quick Reply

Please log in to post quick replies.



Create your own FREE Forum
Report Abuse
Powered by ActiveBoard